This is the latest recevied weather packets stored in our database for station/object K3RUP-1. If no packets are shown the sender has not sent any weather packets the latest 10 day(s).
| Time | Temp. | Humidity | Pressure | Rain* | Wind** | Luminosity | Snow |
|---|---|---|---|---|---|---|---|
| 1777900838 | 15° C | 55% | 1014 hPa | 0 mm | - | 46 W/m² | - |
| 1777900535 | 15° C | 55% | 1014.1 hPa | 0 mm | - | 49 W/m² | - |
| 1777900232 | 15° C | 56% | 1014 hPa | 0 mm | - | 47 W/m² | - |
| 1777899928 | 14.44° C | 57% | 1014.3 hPa | 0 mm | - | 79 W/m² | - |
| 1777899626 | 14.44° C | 58% | 1014.1 hPa | 0 mm | - | 55 W/m² | - |
| 1777899322 | 14.44° C | 58% | 1014.1 hPa | 0 mm | - | 45 W/m² | - |
| 1777899021 | 14.44° C | 58% | 1014.3 hPa | 0 mm | - | 46 W/m² | - |
| 1777898717 | 14.44° C | 58% | 1014.2 hPa | 0 mm | - | 46 W/m² | - |
| 1777898415 | 14.44° C | 59% | 1014.3 hPa | 0 mm | - | 52 W/m² | - |
| 1777898112 | 13.89° C | 58% | 1014.3 hPa | 0 mm | - | 104 W/m² | - |
| 1777897809 | 13.89° C | 58% | 1014.3 hPa | 0 mm | - | 122 W/m² | - |
| 1777897504 | 13.33° C | 59% | 1014.4 hPa | 0 mm | - | 85 W/m² | - |
| 1777897201 | 13.33° C | 60% | 1014.4 hPa | 0 mm | - | 46 W/m² | - |
| 1777896896 | 13.33° C | 60% | 1014.2 hPa | 0 mm | - | 36 W/m² | - |
| 1777896594 | 12.78° C | 61% | 1014.3 hPa | 0 mm | - | 51 W/m² | - |
| 1777896290 | 12.78° C | 63% | 1014.3 hPa | 0 mm | - | 83 W/m² | - |
| 1777895989 | 12.22° C | 62% | 1014.6 hPa | 0 mm | - | 40 W/m² | - |
| 1777895687 | 12.22° C | 63% | 1014.6 hPa | 0 mm | - | 32 W/m² | - |
| 1777895383 | 12.22° C | 64% | 1014.7 hPa | 0 mm | - | 29 W/m² | - |
| 1777895081 | 12.22° C | 63% | 1014.7 hPa | 0 mm | - | 33 W/m² | - |
| 1777894778 | 12.22° C | 67% | 1014.6 hPa | 0 mm | - | 39 W/m² | - |
| 1777894475 | 11.67° C | 69% | 1014.6 hPa | 0 mm | - | 52 W/m² | - |
| 1777894172 | 11.11° C | 71% | 1014.6 hPa | 0 mm | - | 56 W/m² | - |
| 1777893869 | 10.56° C | 74% | 1014.7 hPa | 0 mm | - | 41 W/m² | - |
| 1777893566 | 10.56° C | 75% | 1014.5 hPa | 0 mm | - | 32 W/m² | - |
* Rain latest hour (hover to see other rain measurements)
** Current wind speed in m/s (hover to see current wind gust speed)